Flag for Germany Weather past 2 weeks in Lübeck, Schleswig-Holstein, Germany

Now
54 °F

Light rain. Partly cloudy.


Feels Like: 49 °F
Forecast: 42 / 51 °F
Wind: 17 mph from West

Location: Luebeck-Blankensee

Current Time: Dec 18, 2014 at 11:08:45 PM

Latest Report: Dec 18, 2014 at 9:50 PM


Visibility: 3 mi

Pressure: 29.56 "Hg

Humidity: 94%

Dew point: 52 °F

Location of LübeckLocation

Historic Weather in Lübeck — Graph

°F

Lübeck temperature yesterday

Maximum temperature yesterday: 39 °F (at 11:20 AM)
Minimum temperature yesterday: 34 °F (at 6:50 AM)
Average temperature yesterday: 37 °F

Past Weeks' High & Low Weather Summary

 TemperatureHumidityPressure
High54 °F (Dec 18, 8:50 PM)100% (Dec 5, 10:20 AM)30.30 "Hg (Dec 5, 10:20 AM)
Low28 °F (Dec 3, 9:20 PM)32% (Dec 6, 7:20 PM)29.15 "Hg (Dec 12, 2:20 PM)
Average39 °F90%29.83 "Hg
* Reported Dec 3 9:20 PM — Dec 18 9:20 PM, Lübeck, Weather by CustomWeather, © 2014

Note: Actual official high and low records may vary slightly from our data, if they occured in-between our weather recording intervals... More about our weather records

Advertising

Lübeck weather history for previous 24 hours

 ConditionsComfort  
Time TempWeatherWind HumidityBarometerVisibility
9:20 PM
Dec 18
54 °FLight rain. Partly cloudy.17 mph94%29.56 "Hg4 mi
8:50 PM54 °FLight rain. Partly cloudy.17 mph94%29.56 "Hg4 mi
8:20 PM52 °FLight rain. Partly cloudy.17 mph100%29.56 "Hg4 mi
7:50 PM52 °FLight rain. Partly cloudy.16 mph100%29.56 "Hg2 mi
7:20 PM52 °FPartly cloudy.15 mph100%29.56 "Hg3 mi
6:50 PM52 °FPassing clouds.14 mph94%29.56 "Hg1 mi
6:20 PM52 °FPassing clouds.15 mph94%29.59 "Hg1 mi
5:50 PM52 °FPassing clouds.14 mph94%29.59 "Hg2 mi
5:20 PM52 °FPartly cloudy.13 mph94%29.59 "Hg2 mi
4:50 PM52 °FDrizzle. Fog.12 mph94%29.59 "Hg2 mi
4:20 PM52 °FPassing clouds.13 mph94%29.59 "HgN/A
3:50 PM50 °FBroken clouds.12 mph100%29.59 "HgN/A
3:20 PM50 °FDrizzle. Fog.13 mph100%29.62 "Hg2 mi
2:50 PM52 °FBroken clouds.12 mph94%29.62 "Hg6 mi
2:20 PM52 °FPartly sunny.13 mph94%29.62 "Hg6 mi
1:50 PM50 °FFog.13 mph100%29.65 "Hg3 mi
1:20 PM50 °FFog.14 mph100%29.65 "Hg3 mi
12:50 PM50 °FDrizzle. Low clouds.13 mph100%29.65 "Hg2 mi
12:20 PM50 °FFog.14 mph100%29.68 "Hg2 mi
11:50 AM50 °FFog.13 mph100%29.65 "Hg3 mi
11:20 AM50 °FFog.12 mph100%29.68 "Hg2 mi
10:50 AM50 °FFog.13 mph94%29.68 "Hg2 mi
10:20 AM50 °FFog.12 mph94%29.68 "Hg1 mi
9:50 AM48 °FFog.10 mph100%29.68 "Hg2 mi
9:20 AM48 °FDrizzle. Mostly cloudy.9 mph100%29.68 "Hg1 mi
8:50 AM48 °FDrizzle. More clouds than sun.7 mph94%29.68 "Hg1 mi
8:20 AM46 °FDrizzle. Low clouds.7 mph100%29.71 "Hg1 mi
7:50 AM46 °FDrizzle. Fog.7 mph93%29.68 "Hg2 mi
7:20 AM46 °FPassing clouds.6 mph93%29.71 "Hg4 mi
6:50 AM46 °FPartly cloudy.7 mph93%29.71 "Hg4 mi
Weather by CustomWeather, © 2014

See weather overviewHow to use our weather pages